| time (UTC) | temp C | wind direction | speed KPH | gust KPH | rain 1hr cm | rain 24hr cm | rain mn cm | humidity % | barometer mb |
| 20260906085306 | 13 | 168 | 1.6 | 6.4 | 0.00 | 0.18 | 0.00 | 71 | 1016.1 |
| 20260906084306 | 13 | 242 | 4.8 | 12.9 | 0.00 | 0.18 | 0.00 | 70 | 1016.0 |
| 20260906083803 | 13 | 237 | 3.2 | 9.7 | 0.00 | 0.18 | 0.00 | 70 | 1016.1 |
| 20260906083303 | 13 | 0 | 1.6 | 4.8 | 0.00 | 0.18 | 0.00 | 72 | 1016.1 |
| 20260906082804 | 13 | 199 | 3.2 | 11.3 | 0.00 | 0.18 | 0.00 | 73 | 1016.1 |
| 20260906082305 | 13 | 128 | 3.2 | 11.3 | 0.00 | 0.18 | 0.00 | 73 | 1016.2 |
| 20260906081803 | 13 | 285 | 3.2 | 6.4 | 0.00 | 0.18 | 0.00 | 73 | 1016.2 |
| 20260906081303 | 13 | 313 | 3.2 | 6.4 | 0.00 | 0.18 | 0.00 | 73 | 1016.3 |
| 20260906080802 | 13 | 249 | 3.2 | 6.4 | 0.00 | 0.18 | 0.00 | 72 | 1016.3 |
| 20260906080302 | 13 | 242 | 1.6 | 6.4 | 0.00 | 0.18 | 0.00 | 71 | 1016.2 |
| 20260906075301 | 13 | 0 | 1.6 | 4.8 | 0.00 | 0.18 | 0.00 | 70 | 1016.3 |
| 20260906074801 | 13 | 316 | 0.0 | 1.6 | 0.00 | 0.18 | 0.00 | 69 | 1016.6 |
| 20260906074302 | 13 | 0 | 1.6 | 4.8 | 0.00 | 0.18 | 0.00 | 69 | 1016.7 |
| 20260906073802 | 13 | 317 | 1.6 | 6.4 | 0.00 | 0.18 | 0.00 | 70 | 1016.7 |
| 20260906072801 | 13 | 173 | 3.2 | 6.4 | 0.00 | 0.18 | 0.00 | 71 | 1016.6 |
| 20260906072301 | 13 | 306 | 3.2 | 6.4 | 0.00 | 0.18 | 0.00 | 72 | 1016.4 |
| 20260906071801 | 13 | 249 | 3.2 | 6.4 | 0.00 | 0.18 | 0.00 | 73 | 1016.4 |
| 20260906070803 | 13 | 0 | 0.0 | 6.4 | 0.00 | 0.18 | 0.00 | 70 | 1016.5 |
| 20260906070303 | 14 | 310 | 3.2 | 9.7 | 0.00 | 0.18 | 0.00 | 71 | 1016.5 |
| 20260906065804 | 13 | 310 | 3.2 | 9.7 | 0.00 | 0.18 | 0.00 | 70 | 1016.6 |
| 20260906065305 | 13 | 120 | 1.6 | 9.7 | 0.00 | 0.18 | 0.00 | 74 | 1016.7 |
| 20260906064805 | 13 | 49 | 0.0 | 1.6 | 0.00 | 0.18 | 0.00 | 72 | 1016.7 |
| 20260906064303 | 13 | 58 | 0.0 | 3.2 | 0.00 | 0.18 | 0.00 | 72 | 1016.9 |
| 20260906063805 | 13 | 61 | 1.6 | 3.2 | 0.00 | 0.18 | 0.00 | 70 | 1016.8 |
| 20260906063302 | 13 | 61 | 1.6 | 3.2 | 0.00 | 0.18 | 0.00 | 70 | 1016.7 |
| 20260906062802 | 13 | 0 | 1.6 | 3.2 | 0.00 | 0.18 | 0.00 | 70 | 1016.7 |
| 20260906062305 | 13 | 0 | 1.6 | 4.8 | 0.00 | 0.18 | 0.00 | 70 | 1016.7 |
| 20260906061803 | 13 | 0 | 1.6 | 8.0 | 0.00 | 0.18 | 0.00 | 71 | 1016.7 |
| 20260906061305 | 13 | 76 | 1.6 | 8.0 | 0.00 | 0.18 | 0.00 | 70 | 1016.8 |
| 20260906060803 | 13 | 9 | 0.0 | 4.8 | 0.00 | 0.18 | 0.00 | 70 | 1017.1 |
| 20260906060303 | 13 | 0 | 1.6 | 6.4 | 0.00 | 0.18 | 0.00 | 70 | 1017.2 |
| 20260906055804 | 14 | 0 | 3.2 | 12.9 | 0.00 | 0.18 | 0.18 | 69 | 1017.1 |
| 20260906055306 | 14 | 0 | 3.2 | 12.9 | 0.00 | 0.18 | 0.18 | 68 | 1016.9 |
| 20260906054802 | 15 | 0 | 1.6 | 11.3 | 0.00 | 0.18 | 0.18 | 67 | 1016.8 |
| 20260906054301 | 15 | 198 | 3.2 | 14.5 | 0.00 | 0.18 | 0.18 | 63 | 1016.8 |
| 20260906053801 | 14 | 122 | 3.2 | 14.5 | 0.10 | 0.18 | 0.18 | 64 | 1016.6 |
| 20260906053302 | 14 | 289 | 3.2 | 9.7 | 0.18 | 0.18 | 0.18 | 69 | 1016.6 |
| 20260906052801 | 14 | 250 | 3.2 | 9.7 | 0.18 | 0.18 | 0.18 | 67 | 1016.6 |
| 20260906052305 | 13 | 0 | 4.8 | 9.7 | 0.18 | 0.18 | 0.18 | 71 | 1016.6 |
| 20260906051802 | 13 | 0 | 4.8 | 9.7 | 0.18 | 0.18 | 0.18 | 71 | 1016.7 |
| 20260906051301 | 14 | 0 | 4.8 | 9.7 | 0.18 | 0.18 | 0.18 | 71 | 1016.8 |
| 20260906050802 | 13 | 0 | 4.8 | 8.0 | 0.18 | 0.18 | 0.18 | 71 | 1016.8 |
| 20260906050300 | 14 | 0 | 4.8 | 9.7 | 0.18 | 0.18 | 0.18 | 71 | 1016.9 |
| 20260906045801 | 14 | 0 | 3.2 | 9.7 | 0.18 | 0.18 | 0.18 | 71 | 1017.1 |
| 20260906045305 | 15 | 0 | 3.2 | 8.0 | 0.18 | 0.18 | 0.18 | 68 | 1017.2 |
| 20260906044302 | 16 | 0 | 3.2 | 8.0 | 0.18 | 0.18 | 0.15 | 63 | 1017.7 |
| 20260906043803 | 17 | 0 | 4.8 | 14.5 | 0.08 | 0.08 | 0.05 | 57 | 1017.5 |
| 20260906042801 | 19 | 213 | 3.2 | 17.7 | 0.00 | 0.00 | 0.00 | 46 | 1017.2 |
| 20260906042301 | 20 | 163 | 4.8 | 20.9 | 0.00 | 0.00 | 0.00 | 45 | 1016.7 |
| 20260906041801 | 20 | 140 | 6.4 | 20.9 | 0.00 | 0.00 | 0.00 | 43 | 1016.7 |
| 20260906041301 | 20 | 124 | 8.0 | 17.7 | 0.00 | 0.00 | 0.00 | 45 | 1016.7 |
| 20260906040801 | 20 | 207 | 9.7 | 17.7 | 0.00 | 0.00 | 0.00 | 44 | 1016.6 |
| 20260906040301 | 18 | 0 | 4.8 | 17.7 | 0.00 | 0.00 | 0.00 | 45 | 1016.5 |
| 20260906035801 | 17 | 0 | 1.6 | 16.1 | 0.00 | 0.00 | 0.00 | 52 | 1016.3 |
| 20260906035305 | 17 | 0 | 1.6 | 4.8 | 0.00 | 0.00 | 0.00 | 49 | 1016.4 |
| 20260906034801 | 17 | 0 | 3.2 | 6.4 | 0.00 | 0.00 | 0.00 | 51 | 1016.2 |
| 20260906034301 | 17 | 0 | 3.2 | 6.4 | 0.00 | 0.00 | 0.00 | 51 | 1016.3 |
| 20260906033302 | 17 | 0 | 3.2 | 6.4 | 0.00 | 0.00 | 0.00 | 54 | 1016.2 |
| 20260906032801 | 17 | 0 | 3.2 | 8.0 | 0.00 | 0.00 | 0.00 | 52 | 1016.1 |
| 20260906032305 | 17 | 0 | 0.0 | 8.0 | 0.00 | 0.00 | 0.00 | 51 | 1016.0 |
| 20260906031801 | 17 | 0 | 0.0 | 0.0 | 0.00 | 0.00 | 0.00 | 53 | 1016.1 |
| 20260906031300 | 17 | 0 | 0.0 | 0.0 | 0.00 | 0.00 | 0.00 | 54 | 1016.0 |
| 20260906030803 | 17 | 0 | 0.0 | 0.0 | 0.00 | 0.00 | 0.00 | 59 | 1015.9 |
| 20260906030300 | 17 | 0 | 0.0 | 0.0 | 0.00 | 0.00 | 0.00 | 58 | 1015.9 |
| 20260906025802 | 17 | 0 | 0.0 | 0.0 | 0.00 | 0.00 | 0.00 | 58 | 1015.9 |
| 20260906025306 | 17 | 0 | 0.0 | 0.0 | 0.00 | 0.00 | 0.00 | 57 | 1015.9 |
| 20260906024803 | 17 | 0 | 0.0 | 0.0 | 0.00 | 0.00 | 0.00 | 56 | 1015.9 |
| 20260906024301 | 17 | 0 | 0.0 | 0.0 | 0.00 | 0.00 | 0.00 | 55 | 1015.7 |
| 20260906023803 | 17 | 0 | 0.0 | 0.0 | 0.00 | 0.00 | 0.00 | 53 | 1015.6 |
| 20260906023301 | 18 | 0 | 0.0 | 0.0 | 0.00 | 0.00 | 0.00 | 53 | 1015.6 |
| 20260906022301 | 18 | 0 | 0.0 | 0.0 | 0.00 | 0.00 | 0.00 | 48 | 1015.4 |
| 20260906021803 | 18 | 0 | 0.0 | 0.0 | 0.00 | 0.00 | 0.00 | 47 | 1015.4 |
| 20260906021303 | 18 | 0 | 0.0 | 0.0 | 0.00 | 0.00 | 0.00 | 47 | 1015.4 |
| 20260906020801 | 18 | 0 | 0.0 | 0.0 | 0.00 | 0.00 | 0.00 | 45 | 1015.4 |
| 20260906020300 | 18 | 0 | 0.0 | 3.2 | 0.00 | 0.00 | 0.00 | 48 | 1015.4 |
| 20260906015802 | 19 | 0 | 0.0 | 3.2 | 0.00 | 0.00 | 0.00 | 46 | 1015.3 |
| 20260906015305 | 19 | 0 | 0.0 | 0.0 | 0.00 | 0.00 | 0.00 | 43 | 1015.3 |
| 20260906014302 | 20 | 0 | 0.0 | 0.0 | 0.00 | 0.00 | 0.00 | 43 | 1015.5 |
| 20260906013301 | 20 | 0 | 1.6 | 4.8 | 0.00 | 0.00 | 0.00 | 42 | 1015.5 |
| 20260906012301 | 20 | 0 | 1.6 | 3.2 | 0.00 | 0.00 | 0.00 | 40 | 1015.6 |
| 20260906011300 | 20 | 38 | 0.0 | 3.2 | 0.00 | 0.00 | 0.00 | 42 | 1015.5 |
| 20260906010803 | 20 | 38 | 1.6 | 4.8 | 0.00 | 0.00 | 0.00 | 41 | 1015.4 |
| 20260906005801 | 20 | 343 | 3.2 | 6.4 | 0.00 | 0.00 | 0.00 | 37 | 1015.5 |
| 20260906005301 | 21 | 345 | 3.2 | 8.0 | 0.00 | 0.00 | 0.00 | 37 | 1015.4 |
| 20260906004804 | 21 | 348 | 3.2 | 8.0 | 0.00 | 0.00 | 0.00 | 37 | 1015.5 |
| 20260906004302 | 21 | 331 | 3.2 | 6.4 | 0.00 | 0.00 | 0.00 | 37 | 1015.4 |
| 20260906003303 | 21 | 26 | 3.2 | 6.4 | 0.00 | 0.00 | 0.00 | 38 | 1015.4 |
| 20260906002803 | 21 | 331 | 1.6 | 6.4 | 0.00 | 0.00 | 0.00 | 36 | 1015.6 |
| 20260906002300 | 22 | 317 | 1.6 | 6.4 | 0.00 | 0.00 | 0.00 | 34 | 1015.6 |
| 20260906001801 | 22 | 355 | 1.6 | 4.8 | 0.00 | 0.00 | 0.00 | 32 | 1015.7 |
| 20260906000801 | 23 | 16 | 0.0 | 3.2 | 0.00 | 0.00 | 0.00 | 31 | 1015.7 |
| 20260906000300 | 23 | 25 | 0.0 | 3.2 | 0.00 | 0.00 | 0.00 | 32 | 1015.9 |
| 20260905235301 | 23 | 32 | 0.0 | 3.2 | 0.00 | 0.00 | 0.00 | 32 | 1015.9 |
| 20260905234757 | 23 | 33 | 0.0 | 1.6 | 0.00 | 0.00 | 0.00 | 30 | 1016.0 |
| 20260905233746 | 23 | 64 | 0.0 | 3.2 | 0.00 | 0.00 | 0.00 | 34 | 1016.1 |
| 20260905233239 | 23 | 55 | 0.0 | 3.2 | 0.00 | 0.00 | 0.00 | 33 | 1016.1 |
| 20260905232239 | 22 | 355 | 0.0 | 4.8 | 0.00 | 0.00 | 0.00 | 34 | 1016.2 |
| 20260905231238 | 21 | 22 | 1.6 | 3.2 | 0.00 | 0.00 | 0.00 | 36 | 1016.2 |
| 20260905230737 | 21 | 38 | 1.6 | 4.8 | 0.00 | 0.00 | 0.00 | 37 | 1016.3 |
| 20260905230237 | 21 | 38 | 1.6 | 4.8 | 0.00 | 0.00 | 0.00 | 34 | 1016.4 |
| 20260905225738 | 21 | 42 | 1.6 | 4.8 | 0.00 | 0.00 | 0.00 | 33 | 1016.4 |
| 20260905225238 | 21 | 68 | 1.6 | 4.8 | 0.00 | 0.00 | 0.00 | 33 | 1016.4 |
| 20260905224235 | 21 | 208 | 3.2 | 9.7 | 0.00 | 0.00 | 0.00 | 33 | 1016.5 |
| 20260905223735 | 21 | 214 | 1.6 | 9.7 | 0.00 | 0.00 | 0.00 | 36 | 1016.5 |
| 20260905223232 | 22 | 67 | 1.6 | 4.8 | 0.00 | 0.00 | 0.00 | 36 | 1016.6 |
| 20260905221730 | 21 | 85 | 0.0 | 0.0 | 0.00 | 0.00 | 0.00 | 36 | 1016.7 |
| 20260905220731 | 21 | 88 | 1.6 | 6.4 | 0.00 | 0.00 | 0.00 | 35 | 1016.8 |
| 20260905215723 | 21 | 283 | 3.2 | 9.7 | 0.00 | 0.00 | 0.00 | 34 | 1017.1 |
| 20260905215217 | 21 | 327 | 1.6 | 6.4 | 0.00 | 0.00 | 0.00 | 34 | 1017.1 |
| 20260905214711 | 20 | 275 | 1.6 | 6.4 | 0.00 | 0.00 | 0.00 | 39 | 1017.2 |
| 20260905214204 | 20 | 113 | 3.2 | 9.7 | 0.00 | 0.00 | 0.00 | 39 | 1017.2 |
| 20260905213705 | 20 | 112 | 3.2 | 9.7 | 0.00 | 0.00 | 0.00 | 37 | 1017.3 |
| 20260905213205 | 20 | 206 | 3.2 | 6.4 | 0.00 | 0.00 | 0.00 | 37 | 1017.3 |
| 20260905212707 | 20 | 115 | 1.6 | 6.4 | 0.00 | 0.00 | 0.00 | 38 | 1017.4 |
| 20260905212203 | 20 | 131 | 1.6 | 6.4 | 0.00 | 0.00 | 0.00 | 40 | 1017.4 |
| 20260905211703 | 20 | 71 | 1.6 | 6.4 | 0.00 | 0.00 | 0.00 | 40 | 1017.4 |
| 20260905211204 | 20 | 103 | 1.6 | 6.4 | 0.00 | 0.00 | 0.00 | 39 | 1017.5 |
| 20260905210703 | 20 | 228 | 3.2 | 8.0 | 0.00 | 0.00 | 0.00 | 41 | 1017.5 |
| 20260905210202 | 20 | 256 | 3.2 | 8.0 | 0.00 | 0.00 | 0.00 | 39 | 1017.6 |
| 20260905205701 | 20 | 312 | 3.2 | 6.4 | 0.00 | 0.00 | 0.00 | 38 | 1017.5 |
| 20260905205201 | 20 | 82 | 1.6 | 4.8 | 0.00 | 0.00 | 0.00 | 40 | 1017.5 |
| 20260905204702 | 20 | 93 | 1.6 | 4.8 | 0.00 | 0.00 | 0.00 | 45 | 1017.6 |
| 20260905204201 | 19 | 93 | 3.2 | 4.8 | 0.00 | 0.00 | 0.00 | 44 | 1017.6 |
| 20260905203702 | 19 | 114 | 1.6 | 4.8 | 0.00 | 0.00 | 0.00 | 44 | 1017.6 |
| 20260905203201 | 18 | 114 | 1.6 | 9.7 | 0.00 | 0.00 | 0.00 | 46 | 1017.6 |
| 20260905202702 | 18 | 125 | 3.2 | 9.7 | 0.00 | 0.00 | 0.00 | 47 | 1017.7 |
| 20260905201703 | 18 | 125 | 3.2 | 9.7 | 0.00 | 0.00 | 0.00 | 45 | 1017.8 |
| 20260905201201 | 19 | 196 | 1.6 | 3.2 | 0.00 | 0.00 | 0.00 | 46 | 1017.8 |
| 20260905200701 | 19 | 285 | 1.6 | 4.8 | 0.00 | 0.00 | 0.00 | 46 | 1017.8 |
| 20260905200201 | 18 | 281 | 1.6 | 4.8 | 0.00 | 0.00 | 0.00 | 49 | 1017.8 |
| 20260905195203 | 17 | 95 | 4.8 | 9.7 | 0.00 | 0.00 | 0.00 | 50 | 1017.9 |
| 20260905194703 | 17 | 118 | 3.2 | 6.4 | 0.00 | 0.00 | 0.00 | 51 | 1017.9 |
| 20260905194202 | 17 | 108 | 1.6 | 3.2 | 0.00 | 0.00 | 0.00 | 54 | 1018.0 |
| 20260905193702 | 17 | 109 | 1.6 | 4.8 | 0.00 | 0.00 | 0.00 | 54 | 1017.9 |
| 20260905193201 | 17 | 109 | 1.6 | 4.8 | 0.00 | 0.00 | 0.00 | 54 | 1018.0 |
| 20260905192701 | 16 | 109 | 3.2 | 4.8 | 0.00 | 0.00 | 0.00 | 55 | 1018.1 |
| 20260905192201 | 16 | 109 | 4.8 | 6.4 | 0.00 | 0.00 | 0.00 | 56 | 1018.1 |
| 20260905191702 | 16 | 109 | 4.8 | 6.4 | 0.00 | 0.00 | 0.00 | 56 | 1018.1 |
| 20260905191201 | 16 | 102 | 3.2 | 6.4 | 0.00 | 0.00 | 0.00 | 56 | 1018.3 |
| 20260905190701 | 16 | 86 | 1.6 | 4.8 | 0.00 | 0.00 | 0.00 | 56 | 1018.3 |
| 20260905190202 | 16 | 85 | 1.6 | 4.8 | 0.00 | 0.00 | 0.00 | 56 | 1018.4 |
| 20260905185702 | 16 | 65 | 1.6 | 4.8 | 0.00 | 0.00 | 0.00 | 56 | 1018.4 |
| 20260905184701 | 16 | 95 | 1.6 | 6.4 | 0.00 | 0.00 | 0.00 | 57 | 1018.4 |
| 20260905183201 | 15 | 25 | 1.6 | 6.4 | 0.00 | 0.00 | 0.00 | 59 | 1018.4 |
| 20260905182700 | 15 | 0 | 3.2 | 8.0 | 0.00 | 0.00 | 0.00 | 62 | 1018.5 |
| 20260905182204 | 14 | 0 | 3.2 | 8.0 | 0.00 | 0.00 | 0.00 | 61 | 1018.4 |
| 20260905181204 | 14 | 0 | 3.2 | 8.0 | 0.00 | 0.00 | 0.00 | 62 | 1018.5 |
| 20260905180707 | 13 | 0 | 3.2 | 6.4 | 0.00 | 0.00 | 0.00 | 64 | 1018.6 |
| 20260905180205 | 13 | 0 | 3.2 | 8.0 | 0.00 | 0.00 | 0.00 | 63 | 1018.7 |
| 20260905175704 | 13 | 0 | 3.2 | 8.0 | 0.00 | 0.00 | 0.00 | 63 | 1018.7 |
| 20260905175204 | 13 | 0 | 1.6 | 4.8 | 0.00 | 0.00 | 0.00 | 66 | 1018.9 |
| 20260905174704 | 13 | 0 | 0.0 | 3.2 | 0.00 | 0.00 | 0.00 | 66 | 1018.8 |
| 20260905174204 | 13 | 0 | 1.6 | 3.2 | 0.00 | 0.00 | 0.00 | 67 | 1018.8 |
| 20260905173707 | 13 | 0 | 1.6 | 6.4 | 0.00 | 0.00 | 0.00 | 67 | 1018.8 |
| 20260905173203 | 12 | 0 | 3.2 | 6.4 | 0.00 | 0.00 | 0.00 | 68 | 1018.8 |
| 20260905172704 | 12 | 0 | 3.2 | 6.4 | 0.00 | 0.00 | 0.00 | 67 | 1018.8 |
| 20260905172200 | 12 | 0 | 3.2 | 9.7 | 0.00 | 0.00 | 0.00 | 67 | 1018.8 |
| 20260905171148 | 12 | 0 | 1.6 | 6.4 | 0.00 | 0.00 | 0.00 | 68 | 1018.8 |
| 20260905170640 | 12 | 0 | 1.6 | 6.4 | 0.00 | 0.00 | 0.00 | 69 | 1018.8 |
| 20260905170145 | 12 | 0 | 1.6 | 4.8 | 0.00 | 0.00 | 0.00 | 69 | 1018.8 |
| 20260905165641 | 12 | 0 | 1.6 | 6.4 | 0.00 | 0.00 | 0.00 | 69 | 1018.8 |
| 20260905164641 | 11 | 0 | 0.0 | 3.2 | 0.00 | 0.00 | 0.00 | 70 | 1018.8 |
| 20260905163639 | 11 | 0 | 3.2 | 8.0 | 0.00 | 0.00 | 0.00 | 70 | 1018.7 |
| 20260905163139 | 11 | 0 | 1.6 | 6.4 | 0.00 | 0.00 | 0.00 | 70 | 1018.7 |
| 20260905162640 | 11 | 0 | 1.6 | 4.8 | 0.00 | 0.00 | 0.00 | 70 | 1018.7 |
| 20260905162138 | 11 | 340 | 0.0 | 3.2 | 0.00 | 0.00 | 0.00 | 70 | 1018.6 |
| 20260905161636 | 11 | 339 | 0.0 | 4.8 | 0.00 | 0.00 | 0.00 | 70 | 1018.7 |
| 20260905161133 | 11 | 339 | 1.6 | 8.0 | 0.00 | 0.00 | 0.00 | 71 | 1018.8 |
| 20260905160131 | 11 | 343 | 1.6 | 4.8 | 0.00 | 0.00 | 0.00 | 73 | 1018.8 |
| 20260905155630 | 11 | 348 | 0.0 | 4.8 | 0.00 | 0.00 | 0.00 | 74 | 1018.7 |
| 20260905155130 | 10 | 325 | 0.0 | 0.0 | 0.00 | 0.00 | 0.00 | 74 | 1018.6 |
| 20260905154630 | 10 | 318 | 0.0 | 0.0 | 0.00 | 0.00 | 0.00 | 74 | 1018.6 |
| 20260905154129 | 10 | 259 | 0.0 | 0.0 | 0.00 | 0.00 | 0.00 | 74 | 1018.5 |
| 20260905153130 | 10 | 247 | 0.0 | 0.0 | 0.00 | 0.00 | 0.00 | 74 | 1018.6 |
| 20260905152626 | 10 | 246 | 0.0 | 0.0 | 0.00 | 0.00 | 0.00 | 74 | 1018.5 |
| 20260905152127 | 10 | 246 | 0.0 | 0.0 | 0.00 | 0.00 | 0.00 | 73 | 1018.6 |
| 20260905151627 | 10 | 246 | 0.0 | 0.0 | 0.00 | 0.00 | 0.00 | 73 | 1018.6 |
| 20260905151128 | 10 | 246 | 0.0 | 0.0 | 0.00 | 0.00 | 0.00 | 73 | 1018.6 |
| 20260905150625 | 10 | 246 | 0.0 | 0.0 | 0.00 | 0.03 | 0.00 | 73 | 1018.7 |
| 20260905150123 | 10 | 246 | 0.0 | 1.6 | 0.00 | 0.03 | 0.00 | 73 | 1018.6 |
| 20260905145622 | 10 | 246 | 0.0 | 3.2 | 0.00 | 0.03 | 0.00 | 73 | 1018.5 |
| 20260905144116 | 10 | 246 | 0.0 | 3.2 | 0.00 | 0.08 | 0.00 | 73 | 1018.3 |
| 20260905143612 | 10 | 246 | 1.6 | 4.8 | 0.00 | 0.13 | 0.00 | 72 | 1018.3 |
| 20260905143112 | 10 | 246 | 0.0 | 4.8 | 0.00 | 0.13 | 0.00 | 72 | 1018.4 |
| 20260905142609 | 10 | 246 | 0.0 | 0.0 | 0.00 | 0.13 | 0.00 | 72 | 1018.4 |
| 20260905142108 | 10 | 246 | 0.0 | 0.0 | 0.00 | 0.15 | 0.00 | 72 | 1018.3 |
| 20260905141605 | 10 | 246 | 0.0 | 0.0 | 0.00 | 0.18 | 0.00 | 72 | 1018.1 |
| 20260905141105 | 10 | 246 | 0.0 | 0.0 | 0.00 | 0.18 | 0.00 | 72 | 1018.1 |
| 20260905140603 | 10 | 246 | 0.0 | 0.0 | 0.00 | 0.20 | 0.00 | 72 | 1017.9 |
| 20260905140104 | 10 | 246 | 0.0 | 0.0 | 0.00 | 0.20 | 0.00 | 72 | 1017.8 |
| 20260905135103 | 10 | 246 | 1.6 | 6.4 | 0.00 | 0.23 | 0.00 | 72 | 1017.6 |
| 20260905134603 | 10 | 246 | 3.2 | 8.0 | 0.00 | 0.23 | 0.00 | 72 | 1017.6 |
| 20260905134106 | 10 | 246 | 3.2 | 8.0 | 0.00 | 0.23 | 0.00 | 72 | 1017.6 |
| 20260905133603 | 10 | 226 | 1.6 | 6.4 | 0.00 | 0.23 | 0.00 | 72 | 1017.6 |
| 20260905132601 | 10 | 312 | 1.6 | 4.8 | 0.00 | 0.23 | 0.00 | 72 | 1017.7 |
| 20260905132101 | 10 | 312 | 1.6 | 4.8 | 0.00 | 0.25 | 0.00 | 71 | 1017.6 |
| 20260905131603 | 10 | 313 | 1.6 | 3.2 | 0.00 | 0.25 | 0.00 | 72 | 1017.5 |
| 20260905130559 | 10 | 313 | 1.6 | 4.8 | 0.00 | 0.25 | 0.00 | 71 | 1017.1 |
| 20260905130100 | 10 | 285 | 3.2 | 8.0 | 0.00 | 0.25 | 0.00 | 72 | 1017.1 |
| 20260905125559 | 10 | 288 | 3.2 | 8.0 | 0.00 | 0.25 | 0.00 | 72 | 1016.6 |
| 20260905125058 | 10 | 67 | 3.2 | 6.4 | 0.00 | 0.25 | 0.00 | 72 | 1016.5 |
| 20260905124559 | 10 | 344 | 4.8 | 9.7 | 0.00 | 0.25 | 0.00 | 71 | 1016.5 |
| 20260905124100 | 10 | 337 | 4.8 | 9.7 | 0.00 | 0.25 | 0.00 | 71 | 1016.5 |
| 20260905123600 | 10 | 333 | 1.6 | 6.4 | 0.00 | 0.25 | 0.00 | 72 | 1016.4 |
| 20260905122559 | 10 | 90 | 1.6 | 6.4 | 0.00 | 0.28 | 0.00 | 71 | 1016.6 |
| 20260905122052 | 10 | 69 | 0.0 | 4.8 | 0.00 | 0.28 | 0.00 | 72 | 1016.8 |
| 20260905121551 | 10 | 61 | 0.0 | 4.8 | 0.00 | 0.28 | 0.00 | 73 | 1016.8 |
| 20260905120549 | 10 | 275 | 0.0 | 1.6 | 0.00 | 0.28 | 0.00 | 73 | 1016.8 |
| 20260905120050 | 10 | 275 | 1.6 | 4.8 | 0.00 | 0.28 | 0.00 | 73 | 1016.9 |
| 20260905115548 | 10 | 275 | 1.6 | 4.8 | 0.00 | 0.28 | 0.00 | 73 | 1016.5 |
| 20260905115049 | 10 | 263 | 0.0 | 4.8 | 0.00 | 0.28 | 0.00 | 73 | 1016.7 |
| 20260905114550 | 10 | 234 | 0.0 | 0.0 | 0.00 | 0.28 | 0.00 | 73 | 1016.9 |
| 20260905114047 | 10 | 234 | 0.0 | 1.6 | 0.00 | 0.28 | 0.00 | 73 | 1016.9 |
| 20260905113547 | 10 | 233 | 0.0 | 1.6 | 0.00 | 0.28 | 0.00 | 73 | 1016.8 |
| 20260905112547 | 10 | 233 | 1.6 | 6.4 | 0.00 | 0.28 | 0.00 | 73 | 1016.8 |
| 20260905112046 | 10 | 234 | 1.6 | 8.0 | 0.00 | 0.28 | 0.00 | 72 | 1016.7 |
| 20260905111545 | 10 | 229 | 3.2 | 8.0 | 0.00 | 0.28 | 0.00 | 72 | 1016.6 |
| 20260905111044 | 10 | 215 | 1.6 | 8.0 | 0.00 | 0.28 | 0.00 | 73 | 1016.7 |
| 20260905110544 | 10 | 154 | 0.0 | 4.8 | 0.00 | 0.28 | 0.00 | 73 | 1016.7 |
| 20260905110046 | 10 | 205 | 0.0 | 0.0 | 0.00 | 0.28 | 0.00 | 73 | 1016.9 |
| 20260905105546 | 10 | 219 | 0.0 | 0.0 | 0.00 | 0.28 | 0.00 | 73 | 1016.8 |
| 20260905105043 | 10 | 212 | 0.0 | 0.0 | 0.00 | 0.28 | 0.00 | 72 | 1016.6 |
| 20260905104544 | 10 | 202 | 0.0 | 0.0 | 0.00 | 0.28 | 0.00 | 73 | 1016.6 |
| 20260905104043 | 10 | 194 | 0.0 | 0.0 | 0.00 | 0.28 | 0.00 | 73 | 1016.6 |
| 20260905103541 | 10 | 336 | 0.0 | 0.0 | 0.00 | 0.28 | 0.00 | 72 | 1016.5 |
| 20260905103039 | 10 | 339 | 0.0 | 0.0 | 0.00 | 0.28 | 0.00 | 72 | 1016.0 |
| 20260905102539 | 10 | 339 | 0.0 | 0.0 | 0.00 | 0.28 | 0.00 | 72 | 1016.1 |
| 20260905101539 | 10 | 339 | 0.0 | 0.0 | 0.00 | 0.28 | 0.00 | 72 | 1016.1 |
| 20260905101040 | 10 | 339 | 0.0 | 0.0 | 0.00 | 0.28 | 0.00 | 72 | 1016.1 |
| 20260905100539 | 10 | 339 | 0.0 | 0.0 | 0.00 | 0.28 | 0.00 | 72 | 1015.9 |
| 20260905100039 | 10 | 342 | 0.0 | 0.0 | 0.00 | 0.28 | 0.00 | 72 | 1015.9 |
| 20260905095540 | 10 | 343 | 0.0 | 0.0 | 0.00 | 0.28 | 0.00 | 72 | 1016.0 |
| 20260905095036 | 10 | 342 | 0.0 | 0.0 | 0.00 | 0.28 | 0.00 | 72 | 1016.0 |
| 20260905094534 | 10 | 342 | 0.0 | 0.0 | 0.00 | 0.28 | 0.00 | 71 | 1016.1 |
| 20260905094035 | 10 | 343 | 0.0 | 0.0 | 0.00 | 0.28 | 0.00 | 71 | 1016.2 |
| 20260905093535 | 10 | 342 | 0.0 | 0.0 | 0.00 | 0.28 | 0.00 | 71 | 1016.1 |
| 20260905092535 | 10 | 342 | 0.0 | 0.0 | 0.00 | 0.28 | 0.00 | 71 | 1016.2 |
| 20260905092034 | 10 | 343 | 0.0 | 0.0 | 0.00 | 0.28 | 0.00 | 71 | 1016.4 |
| 20260905091534 | 10 | 344 | 0.0 | 0.0 | 0.00 | 0.28 | 0.00 | 72 | 1016.4 |
| 20260905091035 | 10 | 344 | 0.0 | 0.0 | 0.00 | 0.28 | 0.00 | 72 | 1016.3 |
| 20260905090534 | 10 | 344 | 0.0 | 0.0 | 0.00 | 0.28 | 0.00 | 72 | 1015.9 |
| 20260905090034 | 10 | 344 | 0.0 | 0.0 | 0.00 | 0.28 | 0.00 | 72 | 1015.7 |
| 20260905085534 | 10 | 344 | 0.0 | 0.0 | 0.00 | 0.28 | 0.00 | 71 | 1016.0 |